Погода в Индери

Россия / Новосибирская область     54°33′04″N   79°58′39″E
темп.,
°C
ветер,
м/с
пор.,
м/с
влажн.,
%
обл.,
%
осадки,
мм/ч
давл.,
гПа
погр.,
м
20 апреля, вт
вт2001:00−6ссз574756 0.0 10271432
04:00−7ссз555051 0.0 10271238
07:00−7ссз45575 0.0 1029960
10:00−6ссз4548100 0.0 10301256
13:00−3сз45395 0.0 10291310
16:00−1сз45355 0.0 10281482
19:00−1зсз45375 0.0 10271414
22:00−3з48555 0.0 1028338
21 апреля, ср
ср2101:00−3юз51054100 0.0 1025549
04:00−2зюз61049100 0.0 1023751
07:00−2юз7114999 0.0 1021896
10:00−3юз71187100 1.0 1021742
13:000зюз6888100 2.1 1020731
16:00+2ссз786191 0.8 10211318
19:00+1ссз587085 0.9 1023990
22:00−1с5108621 0.1 1026331
22 апреля, чт
чт2201:00−2с5119030 0.1 1028413
04:00−2ссв71087100 0.0 1031597
07:00−2св6981100 0.1 1035688
10:00−1св6772100 0.1 1038957
13:00+2св5654100 0.1 10401589
16:00+4ссв5644100 0.1 10411933
19:00+3ссв575528 0.1 1042672
22:00−1ссв410795 0.0 1045231
23 апреля, пт
пт2301:00−2св37855 0.0 1045152
04:00−2св36875 0.0 1045137
07:00−2ссв37875 0.0 1046216
10:00+2св57645 0.0 1046884
13:00+5св56515 0.0 10451463
16:00+6св564657 0.0 10431753
19:00+6св56495 0.0 10421671
22:00+2ссв377050 0.0 1043143
24 апреля, сб
сб2401:000св37805 0.0 1042147
04:000ссв35825 0.0 1041131
07:000ссв36835 0.0 1040185
10:00+3ссв45605 0.0 1039761
13:00+6ссв34495 0.0 10371427
16:00+8с454374 0.0 10361834
19:00+7ссв565060 0.0 10341548
22:00+4ссв377085 0.0 1035157